Weather observations for the past three days for
Terrell, Terrell Municipal Airport
Imperial (Metric)
Date Time (cdt) Wind (mph) Vis. (mi.) Weather Sky Cond. Temperature (ºF) Relative Humidity Wind Chill (°F) Heat Index (°F) Pressure Precipitation (in)
Air Dwpt 6 hour altimeter (in) sea level (mb) 1 hr 3 hr 6 hr
Max. Min.
17 02:53 SE 6 10.00 Fair CLR 75.9 70 82% 77 29.85 1009.9
17 01:53 S 6 10.00 Fair CLR 78.1 70 76% 80 29.86 1010.2
17 00:53 SE 6 10.00 Fair CLR 79 70 90 79 74% 82 29.86 1010.2
16 23:53 SE 6 10.00 Fair CLR 79 70 74% 82 29.85 1010.2
16 22:53 SE 6 10.00 Fair CLR 81 69.1 67% 84 29.85 1010.1
16 21:53 SE 6 10.00 Fair CLR 81 70 69% 84 29.84 1009.8
16 20:53 SE 6 10.00 A Few Clouds FEW075 84.9 69.1 59% 89 29.83 1009.4
16 19:53 SE 9 10.00 A Few Clouds FEW055 87.1 68 53% 91 29.82 1009.1
16 18:53 SE 10 10.00 Partly Cloudy SCT050 90 68 91.9 89.1 48% 94 29.82 1009.0
16 17:53 SE 9 10.00 A Few Clouds FEW055 91 66.9 45% 94 29.82 1009.1
16 16:53 S 12 10.00 A Few Clouds FEW060 FEW070 91 66 44% 94 29.83 1009.3
16 15:53 S 13 G 22 10.00 Partly Cloudy FEW050 SCT060 91.9 68 46% 96 29.84 1009.7
16 14:53 SE 13 G 20 10.00 Partly Cloudy SCT050 91 68 47% 95 29.86 1010.2
16 13:53 SE 9 G 22 10.00 A Few Clouds FEW048 90 68 48% 94 29.88 1011.0
16 12:53 S 17 G 25 10.00 Light Rain FEW044 90 68 90 73 48% 94 29.9 1011.7
16 11:53 S 16 G 25 10.00 Light Rain FEW040 89.1 69.1 52% 94 29.91 1012.0
16 10:53 S 15 G 26 10.00 Fair CLR 86 69.1 57% 90 29.92 1012.4
16 09:53 S 13 G 21 10.00 Fair CLR 84 71.1 65% 89 29.92 1012.4
16 08:53 SW 10 10.00 Fair CLR 80.1 72 76% 84 29.93 1012.7
16 07:53 S 6 10.00 Fair CLR 77 71.1 82% 79 29.92 1012.4
16 06:53 SE 6 9.00 Fair CLR 73 69.1 78.1 73 87% 29.89 1011.4
16 05:53 S 6 10.00 Fair CLR 73 69.1 87% 29.88 1011.0
16 04:53 S 7 10.00 Fair CLR 75 69.1 82% 75 29.87 1010.8
16 03:53 S 6 10.00 Fair CLR 75.9 69.1 79% 77 29.87 1010.7
16 02:53 S 7 10.00 Fair CLR 77 69.1 77% 79 29.88 1010.9
16 01:53 S 6 10.00 Fair CLR 77 69.1 77% 79 29.89 1011.3
16 00:53 Calm 10.00 Fair CLR 77 69.1 90 77 77% 79 29.9 1011.5
15 23:53 E 6 10.00 Fair CLR 79 69.1 72% 82 29.89 1011.3
15 22:53 SE 5 10.00 Fair CLR 80.1 68 67% 83 29.88 1011.1
15 21:53 SE 6 10.00 Fair CLR 81 68 65% 84 29.87 1010.6
15 20:53 SE 6 10.00 Fair CLR 82.9 68 61% 86 29.85 1010.2
15 19:53 SE 9 10.00 Fair CLR 87.1 66.9 51% 90 29.85 1010.1
15 18:53 S 12 10.00 Fair CLR 90 66 91.9 87.1 45% 93 29.86 1010.4
15 17:53 SE 12 10.00 A Few Clouds FEW060 89.1 66 47% 92 29.86 1010.5
15 16:53 SE 13 10.00 Partly Cloudy SCT055 91 66 44% 94 29.87 1010.9
15 15:53 SE 9 G 23 10.00 A Few Clouds FEW060 91 66 44% 94 29.89 1011.3
15 14:53 SE 14 G 20 10.00 Partly Cloudy SCT050 91.9 66 43% 95 29.9 1011.6
15 13:53 SE 10 G 20 10.00 A Few Clouds FEW050 90 68 48% 94 29.92 1012.3
15 12:53 S 10 4.00 Partly Cloudy with Haze SCT047 SCT055 88 69.1 89.1 71.1 54% 92 29.94 1013.0
15 11:53 S 5 9.00 A Few Clouds FEW044 88 69.1 54% 92 29.95 1013.4
15 10:53 SW 5 4.00 Fair with Haze CLR 86 70 59% 91 29.96 1013.7
15 09:53 SW 6 10.00 Fair CLR 82.9 70 65% 87 29.97 1013.9
15 08:53 S 8 10.00 Fair CLR 80.1 66.9 64% 82 29.98 1014.3
15 07:53 Calm 10.00 Fair CLR 75.9 66.9 74% 77 29.99 1014.6
15 06:53 Calm 10.00 Fair CLR 71.1 66 75.9 70 84% 29.97 1014.2
15 05:53 Calm 10.00 Fair CLR 70 66 87% 29.96 1013.9
15 04:53 Calm 10.00 Fair CLR 71.1 64.9 81% 29.94 1013.1
15 03:53 Calm 10.00 Fair CLR 73 66 79% 29.93 1012.8
15 02:53 Calm 10.00 Fair CLR 73.9 66 76% 29.94 1013.0
15 01:53 SE 6 10.00 Fair CLR 75 66.9 76% 76 29.94 1013.1
15 00:53 Calm 10.00 Fair CLR 75.9 66.9 91 75.9 74% 77 29.96 1013.8
14 23:53 SE 3 10.00 Fair CLR 78.1 66.9 69% 80 29.96 1013.7
14 22:53 E 5 10.00 Fair CLR 79 66 65% 81 29.95 1013.5
14 21:53 E 5 10.00 Fair CLR 80.1 64.9 60% 82 29.94 1013.2
14 20:53 E 3 10.00 Fair CLR 84 66 55% 86 29.93 1012.7
14 19:53 E 6 10.00 Fair CLR 88 66 48% 90 29.92 1012.4
14 18:53 E 9 10.00 Fair CLR 91 63 93.9 88 39% 92 29.92 1012.3
14 17:53 E 7 10.00 Fair CLR 91.9 64 40% 94 29.92 1012.3
14 16:53 N 6 10.00 Fair CLR 93.9 59 31% 93 29.93 1012.8
14 15:53 Calm 10.00 Fair CLR 91 63 39% 92 29.94 1013.3
14 14:53 SE 6 10.00 Fair CLR 91 63 39% 92 29.96 1013.6
14 13:53 Calm 10.00 Fair CLR 90 64 42% 91 29.97 1014.2
14 12:53 S 5 10.00 Fair CLR 89.1 63 89.1 71.1 42% 90 29.99 1014.7
14 11:53 S 9 10.00 Fair CLR 88 66 48% 90 30 1015.0
14 10:53 Vrbl 5 10.00 Fair CLR 84.9 64.9 51% 87 30.01 1015.5
14 09:53 S 7 10.00 Fair CLR 82.9 64.9 55% 85 30.02 1015.8
14 08:53 S 5 10.00 Fair CLR 80.1 66 62% 82 30.01 1015.5
14 07:53 SE 7 10.00 Fair CLR 73.9 64.9 74% 29.99 1014.9
14 06:53 E 3 10.00 Fair CLR 71.1 64 73.9 68 79% 29.99 1014.8
14 05:53 Calm 10.00 Fair CLR 68 64 87% 29.96 1014.0
14 04:53 NE 3 10.00 Fair CLR 69.1 64 84% 29.98 1014.4
14 03:53 N 5 10.00 Fair CLR 70 64.9 84% 29.96 1013.8
Date Time (cdt) Wind (mph) Vis. (mi.) Weather Sky Cond. Air Dwpt Max. Min. Relative Humidity Wind Chill (°F) Heat Index (°F) altimeter (in) sea level (mb) 1 hr 3 hr 6 hr
6 hour
Temperature (ºF) Pressure Precipitation (in)